Theta_e
311 311 312 313 313 312 311 311 311 312 312 308 310 316 318 316 317 313 309 310 308 307 307 307 307 308 308 309 310 310 311 309 311 319 324 323 316 314 316 313 309 307 308 311 315 315 315 317 316 316 316 316 317 317 318 318 318 318 318 317 316 317 317 318 319 319 320 321 321 321 321 322 326 329 329 328 328 330 329 329 332 331 332 336 337 335 332 335
311 312 313 313 313 312 312 311 312 312 310 308 313 318 317 316 317 313 310 310 308 307 307 307 308 309 309 310 310 311 312 312 318 324 323 318 313 311 311 309 308 307 310 315 317 316 316 316 316 316 315 316 317 316 318 319 318 318 317 316 317 318 319 320 320 320 321 321 321 321 321 322 327 328 327 328 328 328 327 329 331 332 334 336 334 332 331 333
311 312 313 313 312 312 312 312 312 311 308 311 316 317 316 316 316 312 311 310 309 308 307 308 309 309 310 311 311 313 315 320 325 323 317 313 312 311 309 308 308 307 312 318 318 315 316 316 316 316 315 317 317 316 318 318 317 318 317 316 317 319 320 321 322 321 321 321 321 320 320 322 326 326 326 326 327 327 327 328 330 333 335 336 335 335 335 335
311 312 313 312 312 312 312 312 311 309 310 315 317 317 316 316 316 313 312 312 311 309 308 309 309 311 312 312 313 314 318 324 324 317 313 313 312 311 310 308 308 310 315 318 317 316 316 317 317 316 316 317 317 317 317 317 317 317 317 317 318 320 320 321 321 321 321 320 320 320 320 321 324 326 326 325 326 326 327 327 329 333 335 335 335 336 336 335
312 312 312 312 312 312 312 311 310 311 314 317 317 316 316 316 315 314 313 313 314 312 309 310 311 312 313 313 314 316 322 324 319 315 314 313 312 311 310 309 311 314 316 317 317 316 317 317 317 316 316 318 318 317 317 318 318 317 317 318 319 320 319 320 321 321 321 320 320 320 320 320 323 325 325 325 326 326 326 326 327 331 333 333 334 334 334 330
312 312 312 311 311 310 311 311 313 315 317 317 317 317 317 316 315 314 314 314 315 314 311 311 313 313 313 314 314 316 322 322 318 318 315 314 313 310 309 310 313 315 316 317 318 316 317 317 317 317 317 318 318 318 317 317 318 317 318 319 319 319 319 320 321 321 320 319 320 319 319 320 321 323 324 326 327 325 326 327 326 329 331 332 332 331 332 330
312 312 311 310 310 311 313 314 316 317 317 317 317 317 317 316 315 315 314 315 315 314 313 313 314 314 314 314 317 321 324 322 319 317 315 315 312 310 309 310 313 314 315 317 317 315 316 317 317 317 317 318 318 318 317 317 318 317 317 319 319 318 319 320 321 321 319 319 320 319 319 319 320 321 322 325 326 326 326 327 327 328 329 331 330 330 334 338
312 312 311 311 313 314 316 317 317 317 317 317 317 318 318 316 315 315 314 314 315 315 314 314 315 315 315 315 318 324 323 321 320 316 315 315 310 310 311 312 314 314 316 316 316 315 316 316 316 317 317 317 318 318 318 317 318 317 317 319 319 318 318 319 320 320 319 319 319 319 319 319 320 320 321 323 324 324 324 326 327 327 328 329 330 333 340 342
312 312 313 315 316 317 317 317 317 317 317 318 318 319 319 317 315 314 314 314 315 315 315 315 315 316 317 318 321 322 318 320 321 316 313 313 312 314 315 316 316 316 317 316 315 315 315 316 316 317 316 317 317 317 318 317 317 317 317 318 319 319 319 318 320 320 319 319 319 319 318 319 320 319 320 321 323 323 322 324 325 325 327 328 330 336 343 343
312 313 315 317 317 317 317 316 317 318 319 319 318 318 318 316 314 314 314 315 315 315 315 315 316 317 319 323 325 320 316 319 321 318 314 314 316 317 317 318 317 316 316 315 315 316 316 317 316 316 316 317 317 317 318 317 316 318 317 318 318 318 319 318 319 319 319 319 319 318 318 319 320 319 319 321 322 322 322 323 324 323 326 328 329 334 341 342
312 314 316 317 317 317 318 318 318 319 319 318 317 317 316 314 314 315 315 315 315 315 315 315 317 318 320 324 324 318 316 319 320 319 316 316 318 319 318 317 316 316 315 315 316 316 316 317 316 316 316 317 317 317 318 317 317 318 317 318 318 318 318 318 319 319 319 319 319 319 318 319 319 319 319 321 321 321 322 323 323 323 324 327 329 334 339 341
313 315 316 317 318 318 318 319 319 318 317 317 317 316 315 314 315 315 315 315 315 315 316 317 319 320 322 323 320 315 317 319 319 318 317 318 319 318 318 315 316 316 315 315 315 315 316 316 316 316 317 317 316 317 317 317 317 317 318 317 316 317 317 317 319 319 319 319 319 319 317 317 318 318 319 320 321 322 322 321 323 323 323 326 329 332 337 340
313 315 317 317 318 317 317 318 319 319 318 318 318 316 315 315 316 316 316 315 316 316 317 319 320 322 324 320 315 316 318 317 318 318 318 318 317 317 317 316 316 315 315 316 315 315 315 315 316 316 317 317 317 317 316 317 317 316 317 316 316 316 315 318 318 318 319 318 319 318 314 315 318 319 319 320 321 322 321 321 322 323 322 326 327 328 334 338
313 315 317 317 316 316 317 316 317 318 319 319 318 316 315 316 317 316 316 316 316 316 317 319 320 324 324 316 313 316 316 316 317 317 318 317 316 315 316 316 315 315 315 315 315 315 315 315 315 316 317 317 317 317 316 317 317 316 316 316 316 313 314 318 318 318 318 318 319 318 313 315 319 319 320 320 321 322 321 321 321 322 322 324 327 329 332 334
313 316 317 316 316 317 318 316 315 317 318 318 317 317 317 317 317 317 316 315 315 316 317 320 321 324 323 315 313 314 314 316 317 317 317 317 316 315 315 315 315 315 315 315 315 315 315 316 315 316 317 317 317 316 316 317 316 317 314 313 315 313 314 319 319 319 318 318 319 317 314 315 318 319 321 320 321 322 321 321 321 322 322 322 327 329 331 330
313 316 317 316 317 318 317 316 315 317 317 317 317 318 318 317 317 316 316 315 315 317 319 322 324 324 321 315 315 315 315 317 316 316 316 315 316 315 315 315 315 315 315 315 315 316 316 316 316 317 317 317 317 316 316 316 315 317 315 312 314 314 315 317 319 319 318 318 318 317 315 316 319 319 321 321 320 321 320 321 321 321 321 322 327 328 329 329
313 316 317 316 317 318 317 315 316 317 317 317 317 318 318 317 317 317 316 316 317 318 319 322 324 324 320 317 317 317 316 315 315 315 315 315 316 315 315 315 316 316 316 316 316 316 316 316 317 317 318 317 317 317 315 314 314 316 316 314 315 315 315 315 317 319 319 318 318 318 317 317 319 320 321 321 320 321 320 321 321 321 322 321 324 327 330 330
313 316 317 316 316 317 316 315 316 317 317 317 317 318 318 318 318 317 317 317 318 319 320 321 322 322 319 317 318 317 315 316 315 316 315 316 315 315 316 316 317 317 317 317 316 317 317 318 318 317 318 319 319 319 316 314 315 316 316 315 315 316 315 315 316 318 318 318 318 317 317 317 318 319 321 321 321 320 320 321 321 321 322 322 322 326 330 331
314 316 317 315 315 316 315 315 317 317 317 319 320 319 318 318 318 319 320 320 321 322 322 322 322 320 317 317 318 316 316 316 317 317 317 317 316 317 317 317 318 318 318 318 318 318 318 319 319 318 320 321 320 320 318 318 318 317 317 316 315 315 315 317 317 318 318 317 317 317 316 317 317 318 320 320 320 320 320 320 321 321 321 321 322 325 329 330
314 316 317 315 315 316 315 315 317 317 318 321 323 323 322 322 322 321 322 323 323 321 320 320 320 318 317 317 317 317 317 318 318 318 317 318 318 318 318 318 319 319 319 319 319 319 319 318 319 320 321 321 320 320 319 318 318 318 317 316 315 314 315 318 318 318 318 317 316 317 317 317 317 318 319 320 320 320 320 320 320 320 321 322 321 324 327 328
314 316 317 315 315 315 315 315 317 317 320 322 323 326 327 324 324 324 323 322 321 320 319 318 318 319 319 318 317 318 318 319 319 318 318 318 319 319 319 319 319 319 320 320 319 319 319 318 319 322 322 320 320 319 319 318 319 318 317 316 315 314 315 317 319 318 318 316 316 317 317 317 318 318 319 320 320 320 321 321 322 321 322 325 324 326 330 331
313 315 316 316 315 315 315 315 317 319 321 324 325 326 325 323 325 325 324 323 320 320 320 319 319 318 318 319 319 319 320 320 319 319 318 318 319 320 319 319 319 319 320 320 319 319 319 320 321 322 321 320 320 319 319 319 320 319 319 317 315 315 316 317 318 318 318 316 316 317 317 316 318 318 319 320 320 320 321 322 323 325 326 328 327 327 332 335
313 314 315 315 314 315 316 315 317 320 322 325 326 324 323 324 326 325 326 326 321 320 321 320 320 319 319 320 319 320 321 320 321 321 319 318 320 320 319 319 319 319 320 320 319 317 317 320 322 322 321 320 320 319 320 320 319 320 320 318 316 317 318 316 316 318 318 317 317 317 316 317 318 319 319 320 321 321 323 325 325 326 327 328 328 328 329 331
313 313 313 314 314 315 315 315 318 320 322 325 324 322 323 324 326 325 325 326 321 320 321 320 320 319 319 320 319 320 320 320 321 321 320 319 320 320 319 320 319 319 321 320 319 317 317 321 323 322 321 321 320 320 320 319 320 321 321 319 318 319 318 317 317 318 318 317 317 317 315 316 317 318 318 321 324 325 325 326 326 326 327 327 328 328 328 328
313 312 313 313 316 316 316 317 320 321 322 324 323 322 323 325 326 324 325 326 323 321 321 320 321 320 320 320 320 321 319 320 321 321 320 320 319 320 320 321 320 320 320 320 320 319 319 322 322 322 322 321 320 320 320 319 320 321 321 320 319 319 319 319 320 319 316 316 319 318 313 314 319 321 322 324 325 325 325 326 326 326 327 328 328 328 328 328
313 313 313 314 318 321 322 323 321 321 322 324 323 322 323 325 325 323 327 327 321 321 322 321 321 321 321 321 321 321 321 321 322 321 321 320 319 320 320 321 322 321 321 320 320 320 320 322 322 321 321 321 320 320 321 320 318 319 321 320 319 320 319 319 319 318 317 318 320 320 314 315 322 324 324 325 325 324 325 325 325 326 327 327 327 327 327 326
313 314 313 314 318 322 325 324 322 323 324 324 323 322 324 326 322 323 328 325 319 320 322 321 321 321 321 321 320 322 321 321 322 322 322 321 320 321 320 322 322 321 321 320 320 321 321 321 321 320 320 320 319 318 319 318 316 317 320 320 319 319 319 319 319 318 318 319 319 320 316 317 324 325 323 324 325 324 324 324 325 325 325 325 326 326 326 325
313 314 314 315 316 317 320 322 324 326 326 325 324 323 325 325 322 325 329 324 320 322 323 321 321 320 321 322 321 322 322 320 321 322 322 321 321 321 320 320 320 320 320 320 319 320 321 320 319 319 318 318 317 316 316 316 316 316 318 319 319 319 319 319 319 318 319 319 318 318 316 319 324 325 323 324 325 325 324 323 324 324 324 325 325 325 325 325
313 313 314 314 315 317 317 318 323 325 324 324 324 324 325 323 324 330 329 322 321 323 322 321 321 321 322 322 321 322 322 321 321 321 322 322 322 322 320 320 320 319 320 321 320 320 320 319 320 319 318 317 316 316 316 316 316 317 317 319 318 318 319 318 318 318 318 319 318 317 317 320 323 325 324 325 325 325 324 323 323 324 323 324 324 324 324 325
313 313 313 313 320 325 322 321 324 325 324 324 322 322 323 324 327 330 325 322 323 323 322 322 322 321 321 323 323 323 321 322 322 321 322 322 322 323 321 320 321 319 320 322 321 321 321 320 321 319 318 317 316 317 317 317 317 317 318 318 318 319 321 320 319 318 318 320 319 317 318 320 323 325 325 324 324 324 324 323 323 323 323 323 323 324 324 324
312 313 313 315 323 327 326 327 328 326 323 321 319 319 324 327 329 326 322 323 324 323 323 323 322 321 322 322 323 322 321 322 323 321 320 321 323 324 322 321 319 319 321 321 320 321 320 320 320 319 318 318 317 317 318 318 318 318 318 318 318 321 322 321 320 320 321 320 319 318 320 322 324 326 324 323 323 322 323 322 322 323 323 324 323 323 323 324
313 315 316 318 322 325 328 328 326 325 323 320 320 322 327 329 325 323 323 322 322 323 324 323 322 321 321 321 323 322 320 321 323 320 319 319 322 323 321 320 318 317 318 318 318 318 319 319 319 319 318 317 318 318 317 318 319 319 319 318 319 321 322 321 320 321 321 320 319 318 320 325 326 325 324 323 322 321 322 322 322 323 323 323 323 323 323 323
317 318 319 320 320 323 327 324 320 321 321 320 322 326 329 325 320 321 322 322 323 324 322 322 322 322 320 321 323 322 320 322 321 320 320 320 322 322 320 319 318 317 317 317 317 316 317 318 318 317 317 317 318 317 316 318 318 319 319 318 320 321 321 322 323 323 322 321 321 319 320 326 326 324 323 323 322 321 323 322 322 323 322 323 323 323 323 323
319 319 320 320 319 320 321 319 317 319 320 322 326 329 329 323 320 322 323 323 324 322 322 321 320 322 322 322 322 320 320 322 320 318 319 320 322 322 319 319 318 317 317 317 317 316 315 317 317 316 317 317 317 317 317 318 318 319 319 319 320 320 321 324 324 323 323 322 322 320 321 325 326 324 322 323 322 321 322 321 322 322 322 322 322 322 323 323
319 321 321 320 322 321 318 318 319 317 318 324 328 328 327 324 323 325 325 325 323 322 324 322 319 322 324 323 322 319 318 319 319 319 321 321 320 320 319 318 318 317 317 318 317 316 315 316 317 317 317 317 317 317 318 318 318 319 319 318 318 318 319 321 323 323 322 321 321 322 324 324 324 322 322 323 322 321 321 321 321 321 322 322 322 322 322 322
322 326 325 325 327 325 322 321 320 317 318 324 327 325 324 324 325 325 326 325 322 321 323 323 322 321 322 322 322 320 318 318 319 320 321 322 320 320 319 318 318 317 316 317 318 317 316 317 319 318 318 318 317 318 319 318 319 319 319 318 318 319 319 318 319 320 320 321 321 324 325 324 323 323 322 321 320 320 320 320 321 321 321 321 322 322 322 322
326 329 328 327 327 324 322 323 321 319 320 324 326 325 324 325 325 324 324 324 322 321 323 325 324 320 320 321 320 320 318 318 320 320 320 321 321 320 319 318 318 317 316 316 318 318 317 317 319 318 317 317 317 318 318 319 319 318 318 319 319 320 320 318 319 319 319 322 322 323 325 324 324 324 323 320 319 319 319 319 320 321 321 321 321 321 322 322
329 330 327 325 323 321 322 322 320 320 323 325 325 324 323 324 324 323 322 323 323 323 324 324 323 320 320 320 319 319 317 316 319 319 318 320 322 321 319 317 317 317 316 317 318 318 317 317 319 317 316 317 317 318 318 318 318 319 320 320 319 322 322 320 320 320 319 322 322 323 324 324 323 323 322 320 319 319 319 319 319 320 321 321 321 321 321 322
326 329 327 324 321 321 320 319 320 322 326 328 326 322 323 323 322 322 321 322 323 324 325 323 321 320 319 318 318 318 316 316 318 319 318 319 322 322 319 317 316 316 316 318 319 318 318 318 318 317 316 318 317 317 316 317 318 317 319 319 319 321 322 321 321 320 319 320 323 324 324 324 322 321 320 319 319 318 319 319 319 320 321 321 320 321 321 321
324 327 327 324 321 320 319 319 323 328 327 327 326 323 323 322 321 320 319 321 324 323 323 323 321 321 321 320 318 316 317 319 319 319 318 318 320 321 318 316 314 315 317 319 319 318 318 319 319 319 317 318 318 317 316 317 317 317 317 318 318 319 321 321 321 318 318 320 322 323 324 324 321 320 320 319 318 318 319 319 320 320 321 320 320 320 320 321
327 329 325 322 320 320 322 324 327 329 327 325 323 322 322 321 321 320 319 321 322 319 320 322 321 322 321 322 320 317 318 320 318 318 318 317 318 317 316 315 315 316 318 319 319 318 318 319 320 320 317 316 317 318 317 317 317 317 317 317 317 319 320 323 323 320 318 320 320 320 323 323 321 319 319 318 318 319 319 320 320 321 320 320 320 320 320 320
326 328 324 320 318 320 325 327 327 326 325 323 321 321 320 320 321 320 320 321 320 319 320 320 320 321 320 320 320 317 318 320 317 317 318 316 317 316 315 316 316 317 319 320 320 319 319 319 319 319 317 316 318 319 318 319 318 317 318 317 317 318 320 321 323 322 320 320 319 319 323 323 320 319 319 318 318 319 319 319 320 320 320 320 319 319 319 319
326 326 324 320 319 322 326 325 323 324 324 321 321 321 321 321 321 320 320 321 321 321 322 319 319 321 320 319 319 318 318 319 317 316 318 317 316 315 315 317 318 319 319 320 320 320 320 319 318 318 318 317 318 319 319 319 318 317 317 317 317 318 319 321 322 322 321 321 320 319 323 322 320 318 319 318 318 318 318 319 319 319 319 319 319 319 319 319
328 325 323 320 319 323 326 324 322 323 323 322 321 321 321 321 322 321 320 321 322 322 323 321 320 321 320 318 319 317 316 319 319 316 315 317 316 315 317 318 318 318 317 318 318 319 321 321 318 318 319 318 318 319 320 320 318 316 316 317 317 317 318 320 320 320 321 321 320 320 323 322 319 318 318 317 317 318 318 318 318 318 318 318 318 318 318 318
329 323 322 321 320 322 325 324 323 322 322 324 322 321 321 319 319 320 320 319 321 322 323 320 318 319 320 319 320 318 315 318 320 317 316 317 317 316 317 318 317 315 315 316 317 317 320 320 318 317 318 319 319 319 320 319 317 316 317 317 317 317 318 319 319 319 320 320 321 321 321 321 318 317 317 316 316 317 317 318 317 317 317 317 317 317 317 317
328 325 322 322 321 322 323 324 324 323 323 323 323 323 323 320 317 318 319 320 320 321 321 321 320 321 320 320 321 319 316 316 319 319 318 318 318 316 315 317 317 314 314 317 318 318 319 320 319 317 317 317 317 317 318 317 316 316 316 316 316 317 318 318 318 319 319 319 320 320 319 319 318 317 315 315 315 316 317 318 317 317 317 317 317 316 316 316
326 326 324 324 323 322 322 323 323 324 324 323 323 323 324 322 319 318 319 320 321 320 321 321 321 322 322 321 321 319 317 318 319 318 318 317 318 317 316 318 317 315 315 317 318 318 319 320 320 318 316 316 316 316 317 316 316 316 315 315 316 316 317 318 318 318 318 318 319 319 317 317 317 316 315 315 315 315 316 317 316 317 317 316 316 316 316 316
326 325 326 326 326 323 321 322 325 324 324 324 323 324 325 324 322 321 319 319 319 321 322 321 320 322 321 321 322 320 319 320 319 318 318 318 318 317 317 318 318 317 316 317 317 317 317 319 319 318 316 316 316 316 316 316 316 316 316 315 316 316 317 317 317 317 317 317 318 317 316 317 317 315 314 315 314 315 315 315 315 315 315 316 316 316 316 316
326 325 325 323 325 328 324 324 326 323 323 324 322 323 326 324 323 323 320 319 320 321 321 321 321 321 319 320 323 323 322 323 322 320 319 319 318 317 318 317 316 317 318 317 317 317 316 317 318 317 315 315 316 316 316 316 316 316 316 316 315 315 315 316 316 317 316 316 317 316 316 316 316 315 314 314 314 314 314 314 315 315 315 316 316 316 316 315
328 328 329 323 322 326 325 324 323 322 323 322 320 322 326 325 324 321 319 322 323 321 320 321 321 320 319 320 323 324 322 322 323 322 320 320 319 317 318 317 315 316 318 318 317 317 315 316 317 317 315 316 318 318 317 317 316 316 316 315 315 315 315 316 316 316 316 316 316 316 316 316 315 315 314 314 314 314 314 314 315 315 316 316 316 315 314 315
327 326 326 325 324 323 323 323 322 322 323 321 320 323 324 324 325 322 320 322 323 321 321 321 320 318 319 320 322 324 321 319 321 321 319 320 319 317 317 317 314 315 317 318 317 317 316 316 316 317 315 316 319 319 317 316 316 316 316 316 316 316 316 316 316 315 315 316 316 316 317 316 315 315 314 314 314 314 313 314 314 315 316 315 315 314 314 314
326 327 323 323 326 324 322 323 321 322 324 323 322 323 322 324 325 321 319 318 319 320 321 320 320 320 321 323 324 323 320 317 319 319 318 318 318 316 316 316 315 314 314 315 316 317 318 316 315 316 314 314 318 319 317 316 316 317 319 318 317 316 316 315 315 316 316 316 316 316 316 316 316 316 315 314 313 313 313 314 315 315 315 315 314 313 313 313
Wind_Speed
10 11 11 10 9 9 10 11 11 10 8 5 3 4 6 8 9 8 8 8 8 5 5 5 3 3 3 2 2 1 1 4 8 3 3 6 8 8 10 8 5 6 10 11 11 10 10 10 12 11 11 11 11 13 11 11 11 8 6 7 7 8 10 3 1 4 1 4 5 5 2 5 1 8 8 7 6 6 9 12 8 4 7 11 11 9 6 3
11 11 10 9 9 10 11 11 11 9 6 3 3 5 7 8 9 8 8 8 7 5 4 4 3 3 3 2 2 2 5 7 5 1 5 6 6 2 4 5 6 10 15 13 9 10 10 10 11 11 12 11 11 13 9 10 11 9 5 7 8 9 8 4 6 5 5 5 5 3 2 4 2 6 7 7 6 7 9 11 9 3 7 9 8 9 8 5
11 10 9 9 10 11 11 10 9 7 5 3 4 6 8 9 8 7 7 8 7 5 4 4 3 3 2 2 3 3 5 1 2 1 3 1 1 3 2 5 10 13 15 10 6 8 9 8 9 10 12 11 11 10 8 8 10 10 8 8 7 9 9 9 10 8 9 5 2 3 2 3 2 5 5 4 7 8 7 8 11 8 9 8 6 10 10 6
11 10 9 10 11 11 9 9 7 6 5 4 5 7 8 9 8 6 7 8 7 6 4 4 3 3 2 2 2 1 0 4 2 6 2 2 3 4 4 8 12 13 10 5 2 7 8 7 8 10 11 10 10 9 7 8 9 10 9 10 6 9 10 5 3 2 5 5 3 4 5 4 3 7 2 2 5 6 5 6 10 12 14 14 12 12 11 8
11 10 10 11 10 9 8 7 6 6 6 6 7 8 9 9 7 6 6 7 7 6 5 4 3 2 2 2 2 1 4 3 6 7 3 4 5 5 6 10 14 10 7 2 5 7 8 8 7 9 11 9 9 9 7 10 11 8 8 16 12 10 10 3 2 2 3 4 4 6 7 1 2 6 3 2 7 4 4 8 8 13 18 18 17 14 14 12
11 11 11 11 9 8 7 7 7 7 6 7 7 9 9 9 8 6 6 7 7 6 5 4 3 2 3 3 2 3 5 3 7 2 4 5 5 6 6 11 13 8 7 3 8 6 7 8 8 10 10 9 9 7 8 12 11 7 8 14 10 9 12 4 1 2 2 7 9 7 5 5 5 6 6 4 14 11 13 15 8 12 16 15 16 13 14 15
12 11 11 10 9 8 7 7 7 7 7 8 8 9 9 8 7 6 6 5 6 6 4 4 2 1 0 2 2 3 3 5 6 1 3 4 5 8 10 13 13 9 6 4 7 5 7 8 9 10 9 8 9 7 10 13 10 7 9 10 7 11 12 5 3 3 2 9 11 6 5 3 10 3 4 4 12 12 17 24 17 18 18 14 16 15 16 16
12 11 10 10 9 8 7 7 7 8 8 9 9 9 9 8 7 6 5 5 5 5 5 5 3 3 4 4 5 5 2 8 5 2 2 4 8 13 14 13 10 5 2 7 6 6 6 8 10 10 9 7 5 5 6 7 8 8 10 9 6 9 11 8 6 4 4 9 10 7 5 7 10 2 3 6 9 8 11 19 18 19 21 18 18 18 17 16
11 10 10 9 9 8 7 8 8 9 9 9 9 9 9 8 7 6 5 5 5 5 6 6 4 3 4 5 7 5 7 9 4 3 5 9 12 12 8 3 1 4 6 7 6 6 6 8 9 7 9 6 4 5 3 4 7 8 12 11 6 6 9 10 8 8 8 9 10 9 8 10 10 6 3 4 6 11 8 10 12 15 20 19 16 17 16 15
10 9 9 9 9 8 8 8 8 9 9 9 10 9 8 7 6 6 5 5 5 7 7 5 5 5 6 8 6 1 7 5 4 5 7 11 8 5 3 2 5 5 3 3 4 5 4 6 6 5 8 6 5 6 4 6 3 3 12 11 9 9 9 11 11 12 12 10 11 10 10 11 11 8 3 6 6 11 9 8 10 10 17 21 16 16 15 13
8 8 9 9 9 9 9 9 9 9 9 10 10 9 8 6 6 6 6 6 7 8 6 6 7 8 10 8 6 3 6 3 5 6 8 8 3 2 2 2 3 3 4 3 3 4 6 5 4 5 4 3 4 5 6 9 3 3 11 10 10 11 12 13 11 13 12 10 11 9 9 12 12 9 7 12 10 11 8 9 10 7 12 21 19 17 15 12
7 7 9 10 10 10 10 10 9 9 10 11 11 10 7 6 7 7 7 8 8 7 6 6 6 8 9 5 4 6 5 4 6 8 9 6 2 1 2 2 2 3 3 4 1 3 6 4 5 8 6 6 6 3 4 8 5 7 11 9 10 11 12 14 11 12 11 8 9 9 9 11 11 8 9 15 9 12 7 8 9 8 9 19 23 19 16 13
6 7 8 10 11 11 11 11 9 9 9 10 11 9 7 7 7 8 9 8 8 8 7 7 7 8 7 5 6 6 4 6 9 9 7 4 3 2 2 2 3 2 3 5 1 1 5 4 6 10 10 9 7 4 4 5 7 10 10 8 9 9 11 14 14 14 13 11 11 10 7 8 11 11 12 14 9 10 7 8 7 9 8 16 24 20 18 14
5 6 8 10 11 12 12 11 8 7 7 8 9 8 7 7 7 9 9 8 8 8 8 8 7 6 6 8 5 4 6 8 9 8 5 5 5 3 2 2 1 1 3 5 3 2 5 6 9 11 11 11 10 9 6 8 8 9 9 8 7 7 9 14 16 14 13 11 12 9 5 6 11 12 14 15 11 12 9 10 9 7 8 13 22 22 21 16
4 5 8 9 10 11 11 11 8 6 6 7 7 6 7 7 8 8 8 7 7 7 5 3 5 6 1 8 7 8 11 9 8 6 5 4 4 3 3 3 3 3 4 5 5 6 5 7 10 12 12 11 10 9 7 8 7 7 7 6 7 6 9 11 16 13 11 8 12 9 7 6 9 7 15 16 13 11 7 9 8 6 7 9 21 24 21 17
4 5 7 8 9 9 10 10 7 5 5 6 7 7 7 8 8 7 7 7 6 3 2 4 6 7 2 8 6 8 8 6 6 5 2 3 5 3 2 3 4 4 5 6 6 7 7 9 10 12 14 8 8 8 7 6 6 7 6 6 8 7 8 6 13 12 11 9 13 12 7 6 7 10 12 9 9 8 7 7 7 6 8 7 19 24 22 19
4 4 6 7 8 9 9 8 6 5 5 6 7 7 7 7 7 6 6 5 4 2 3 4 6 8 3 6 5 6 5 4 5 3 0 3 6 4 2 6 6 5 7 7 7 8 8 9 10 9 10 7 7 8 6 5 4 3 5 6 8 8 8 3 11 13 14 10 10 12 7 9 10 10 8 14 11 12 10 9 8 7 7 6 13 22 25 22
4 4 5 7 8 8 9 7 6 5 6 7 7 6 6 6 7 6 6 4 5 5 5 2 6 6 4 6 4 6 6 3 2 3 2 2 3 3 5 8 8 6 9 9 9 12 10 8 10 7 5 7 6 5 4 5 6 6 6 6 7 8 10 5 7 10 12 9 7 7 8 11 13 11 9 17 17 12 9 8 6 8 8 7 10 17 24 21
4 4 5 6 7 8 8 7 5 5 7 8 7 6 4 4 5 6 5 5 7 4 1 4 4 2 7 6 5 7 5 3 2 2 2 2 3 4 5 7 6 7 10 8 9 11 8 7 7 4 5 6 4 4 6 9 10 11 10 9 9 8 9 8 4 9 9 6 6 8 10 10 11 11 7 9 12 11 5 5 3 7 9 9 11 14 23 22
4 4 4 5 7 7 7 6 5 5 6 7 7 4 1 2 3 4 4 6 5 5 8 4 6 8 8 8 7 6 5 5 3 1 2 2 3 6 8 10 8 8 9 6 4 4 4 6 3 3 5 6 7 8 10 10 11 12 12 10 11 10 8 10 9 9 8 6 7 9 11 10 10 9 8 12 11 11 5 6 6 9 9 8 8 8 16 24
4 3 3 5 6 6 6 5 5 5 5 6 6 4 3 6 3 3 3 1 3 5 6 9 9 8 6 5 4 4 5 6 3 1 2 3 6 9 6 9 9 7 6 5 4 3 6 6 2 4 6 8 9 11 10 10 12 12 11 9 9 11 9 11 12 9 11 7 6 7 10 11 11 10 10 13 10 7 3 4 3 4 8 8 8 11 10 20
4 3 3 4 5 5 5 4 5 6 5 6 8 7 6 9 7 8 9 3 4 2 5 11 7 8 6 2 3 3 6 3 5 3 1 5 10 9 2 5 7 4 2 4 5 4 5 3 3 3 7 9 9 11 11 10 11 10 9 9 8 8 9 11 11 9 12 7 3 7 9 10 11 12 9 2 3 3 4 5 6 11 18 19 17 19 22 17
3 3 2 3 5 5 4 4 6 6 4 8 9 7 7 9 9 10 12 7 1 4 5 10 7 6 2 1 2 4 9 6 3 7 4 8 12 9 5 7 7 5 5 4 3 4 5 3 8 7 8 10 10 11 13 10 9 8 5 7 9 9 11 9 9 10 10 7 3 8 8 9 9 8 5 9 16 11 12 14 14 17 21 21 19 20 22 14
3 3 2 3 4 5 4 5 4 4 4 8 6 6 7 9 11 12 13 9 2 4 6 6 6 5 3 1 2 8 5 1 4 7 6 10 12 9 6 7 5 4 5 7 7 7 6 8 11 9 9 11 11 10 11 9 7 8 8 7 9 12 13 10 11 16 10 5 2 7 6 7 5 5 4 10 20 18 18 18 19 21 21 20 21 21 19 15
3 3 3 3 4 6 5 4 4 3 4 6 4 4 8 9 10 12 12 8 3 5 2 2 3 4 4 1 5 8 2 4 3 6 5 9 11 9 8 7 5 5 8 9 9 7 3 9 10 10 10 10 11 9 9 8 5 7 8 9 13 14 14 14 13 14 8 1 4 7 6 4 3 6 5 12 17 16 17 18 19 20 21 22 20 18 16 15
4 3 3 3 4 6 5 3 3 3 5 3 5 5 8 9 10 11 9 5 3 4 4 3 1 2 3 3 4 7 1 2 5 5 4 6 8 8 8 7 5 4 8 7 7 5 5 9 9 10 11 11 10 6 7 7 6 4 4 8 13 13 12 13 12 10 6 4 9 11 6 2 7 11 11 14 15 14 14 15 17 18 19 21 19 17 15 11
4 3 3 3 3 3 5 2 0 5 5 4 4 6 9 9 11 12 8 4 3 2 1 3 3 3 3 2 5 7 3 4 4 1 3 6 8 8 8 7 5 4 8 6 4 3 6 11 11 10 11 9 7 7 8 9 8 4 3 7 10 11 10 10 8 5 5 7 10 13 10 1 6 9 11 14 14 13 13 12 14 16 17 18 17 15 14 12
4 4 2 2 2 1 4 1 1 9 9 6 5 7 8 10 11 9 6 1 4 2 1 4 4 2 3 3 5 5 5 6 5 2 5 5 6 8 7 7 10 9 8 7 4 5 8 10 10 8 8 7 8 9 11 10 8 6 6 7 9 10 9 8 7 4 3 5 6 9 11 2 4 5 9 12 12 11 11 11 11 13 15 16 17 14 12 13
5 4 2 2 2 4 3 0 4 10 9 7 6 6 8 11 10 6 4 2 2 1 1 2 0 0 4 6 2 4 4 2 4 5 5 3 2 7 7 6 11 12 7 4 5 3 6 7 5 4 6 7 7 10 12 9 5 6 8 8 8 9 8 7 6 4 4 4 5 9 8 2 3 3 5 8 8 6 6 8 8 10 13 14 16 16 13 13
5 4 3 3 4 5 3 1 4 8 8 7 5 6 9 9 7 6 1 3 1 1 1 2 2 1 5 6 1 4 3 2 6 8 4 2 1 8 9 4 7 11 6 3 5 6 3 4 1 1 7 8 7 11 12 9 8 7 6 6 8 8 6 6 5 3 5 5 6 9 4 6 3 3 5 4 5 3 3 5 5 7 11 12 13 14 14 13
5 4 4 3 3 2 1 2 4 6 8 6 4 6 9 6 5 4 3 2 1 2 0 0 3 3 6 6 1 3 1 2 7 8 5 1 0 10 11 5 5 9 5 1 4 5 5 6 1 3 9 9 9 9 11 13 13 9 5 5 5 4 4 4 4 3 5 5 3 2 6 11 4 0 3 2 5 6 5 5 5 7 10 11 11 11 12 11
5 4 3 2 3 4 3 7 5 6 6 5 4 5 7 5 4 1 4 1 3 4 4 3 4 4 6 5 2 5 4 2 6 6 5 5 1 7 8 7 7 7 5 5 6 5 4 8 7 5 8 12 11 7 8 9 9 8 5 4 3 2 1 1 2 2 4 3 2 2 5 8 4 2 1 3 6 7 7 7 7 8 9 11 11 11 11 11
4 2 1 1 1 2 4 7 4 4 4 3 5 6 6 5 3 2 3 2 1 3 4 4 5 5 5 6 4 7 6 3 7 6 3 5 2 5 8 12 11 8 6 7 7 5 3 9 10 7 5 11 11 6 6 7 6 7 6 5 5 3 2 1 0 1 1 2 4 3 3 5 3 1 3 5 4 6 6 9 10 9 9 9 10 10 10 10
3 1 2 2 2 1 2 3 4 4 3 3 5 5 5 5 4 3 3 5 4 2 2 2 6 4 2 4 4 4 4 2 6 6 4 5 4 5 7 11 13 10 7 7 6 6 5 2 9 9 5 8 10 7 7 9 5 6 7 6 4 3 3 3 1 1 2 1 1 2 1 3 3 1 6 7 2 6 5 8 8 7 8 7 8 8 8 9
2 4 4 4 4 3 2 3 5 4 4 4 5 5 4 3 5 5 4 6 5 5 4 2 6 6 2 1 3 3 2 4 5 4 3 6 6 6 6 8 12 11 7 7 5 6 8 3 8 9 4 6 8 4 6 9 6 4 5 4 4 4 2 1 1 2 4 2 2 2 3 3 3 4 10 8 2 6 6 7 6 6 8 7 8 8 8 9
3 5 6 4 3 2 3 4 6 5 4 6 6 4 2 3 5 5 5 6 5 6 8 4 4 5 1 1 2 5 3 2 5 4 2 5 6 8 8 7 9 10 7 7 5 5 7 4 7 8 3 8 8 6 7 8 5 5 5 4 6 6 4 2 0 2 4 2 1 3 4 4 2 3 5 2 4 5 6 7 7 8 9 8 8 9 10 10
1 2 5 3 1 1 3 4 6 6 5 6 5 4 4 5 6 6 5 6 4 4 8 4 2 4 4 2 3 5 3 2 3 4 2 4 4 8 9 6 9 11 9 7 4 5 7 6 5 8 6 8 6 5 7 7 4 4 6 7 7 5 3 3 2 1 1 1 1 2 5 5 2 1 2 3 5 6 6 6 7 9 10 9 9 10 11 11
2 5 5 1 1 2 4 5 6 5 5 6 4 2 3 6 8 7 6 6 4 4 6 4 4 4 5 5 4 5 6 5 4 5 5 3 3 8 8 6 9 11 11 8 5 4 6 7 2 3 6 7 2 1 5 8 8 6 4 5 5 3 2 3 3 3 3 2 2 3 5 4 2 2 1 3 6 6 7 7 8 10 10 9 10 10 11 11
3 7 6 4 0 3 4 5 4 5 7 6 3 2 2 5 8 8 7 5 4 5 5 5 4 3 4 5 5 5 6 6 6 5 4 4 4 7 9 7 8 11 11 9 6 5 5 6 2 0 1 2 2 5 6 7 10 7 3 5 6 3 3 4 3 3 4 2 2 3 3 2 3 4 4 5 6 7 7 8 7 8 10 10 10 11 11 11
6 8 3 6 2 3 2 3 3 6 6 3 2 3 4 4 6 7 6 5 3 4 5 6 5 3 4 4 4 5 5 5 5 4 4 6 5 7 11 8 6 9 9 7 5 6 5 6 4 5 3 1 3 7 6 5 7 7 5 7 7 5 5 5 2 2 4 3 1 2 3 3 3 3 4 6 6 7 7 7 6 8 9 10 11 11 11 11
9 7 4 5 1 4 4 4 6 7 4 1 2 5 5 4 5 7 5 4 3 3 4 5 6 5 5 5 4 6 6 5 6 5 4 7 6 6 9 9 7 8 8 6 3 7 5 4 5 8 5 4 6 7 6 6 6 5 5 7 6 6 7 5 3 5 5 4 4 2 2 4 3 2 4 6 6 7 8 7 7 8 10 10 11 12 12 12
9 4 4 4 5 5 5 6 4 4 1 3 4 6 4 1 3 5 4 3 4 4 3 3 5 5 5 5 6 6 5 5 7 6 5 7 9 7 7 9 9 9 7 5 6 8 5 4 4 7 5 5 7 7 5 5 5 4 6 8 7 6 6 5 5 7 7 5 4 1 3 3 2 2 4 5 6 7 8 9 9 9 10 11 11 12 12 12
9 2 6 3 6 4 6 4 2 1 4 5 6 6 3 1 2 2 2 4 4 3 3 3 4 5 5 5 7 6 6 5 5 5 5 7 8 8 8 10 11 10 7 5 6 8 6 4 3 6 6 1 6 8 5 7 7 4 6 8 7 7 7 6 5 5 5 7 6 2 2 1 1 3 4 5 6 8 8 9 9 9 10 11 12 12 12 12
9 2 6 4 6 3 6 3 2 3 4 5 5 5 4 4 5 4 4 5 5 3 3 4 4 5 4 3 5 5 6 4 3 5 5 5 6 7 7 9 10 10 8 4 5 6 5 4 3 5 6 1 3 4 2 8 8 5 6 7 7 9 10 7 5 4 3 7 9 5 3 2 1 2 4 4 6 8 9 9 9 9 10 11 12 12 12 12
9 1 5 5 5 4 6 6 2 4 5 3 4 4 3 4 5 5 5 6 5 5 3 2 3 4 3 3 4 4 5 4 4 3 1 4 5 5 4 4 8 10 7 4 5 6 4 5 5 5 5 5 4 3 4 7 7 5 6 8 8 10 11 8 6 4 4 7 8 5 3 2 2 2 4 6 7 8 9 10 9 9 10 11 12 12 12 12
8 2 5 6 5 6 3 3 3 4 5 3 3 2 1 4 4 3 3 4 6 5 4 3 3 3 3 4 4 4 5 5 5 4 3 4 5 4 1 2 6 9 5 2 4 4 4 5 5 4 6 6 5 5 6 6 6 7 7 9 8 8 9 8 5 5 6 6 4 3 3 2 3 4 6 7 8 8 8 9 10 10 10 10 11 12 12 12
7 3 1 3 3 4 4 2 1 3 5 3 2 2 1 3 4 2 2 3 6 5 3 3 3 3 4 5 4 4 4 5 5 4 5 5 1 2 2 2 6 5 2 3 1 3 4 4 2 3 6 6 5 6 6 5 6 8 8 8 7 7 8 7 5 5 7 6 2 3 5 4 4 6 7 7 7 6 6 7 8 9 10 10 10 11 12 12
5 2 3 1 1 1 2 2 2 4 4 2 0 2 2 2 3 3 2 4 5 3 2 2 2 4 5 3 3 4 3 3 4 4 4 5 4 1 3 3 3 3 1 1 2 3 5 3 3 5 7 6 4 3 3 5 6 6 7 7 6 6 6 6 6 6 6 5 4 5 6 5 5 5 7 8 8 7 6 5 6 8 10 11 11 10 11 12
4 3 1 2 2 4 5 5 5 4 2 0 0 2 3 2 2 2 3 3 2 1 1 1 1 4 4 3 3 3 2 3 4 3 3 4 6 5 1 1 2 3 4 4 4 4 3 2 5 7 7 7 4 2 2 4 6 5 6 6 5 5 6 6 6 6 6 7 5 6 8 3 3 4 7 9 10 11 10 9 10 11 11 12 12 11 12 12
6 6 3 3 3 1 3 2 1 2 3 1 1 2 2 2 2 2 2 2 2 2 2 1 3 4 3 2 4 4 5 4 3 3 4 4 4 5 4 3 3 3 4 2 2 2 1 2 5 5 7 5 3 5 0 4 6 7 7 6 5 6 6 6 6 5 6 8 6 8 9 2 3 3 7 8 10 12 12 11 14 14 12 12 12 12 12 13
6 6 5 6 3 3 4 3 4 4 3 4 3 3 3 3 3 3 2 2 2 2 1 2 4 4 1 1 2 3 5 3 2 3 3 3 3 4 3 5 6 6 6 3 1 1 2 4 6 6 6 2 5 4 2 2 5 8 7 5 5 5 5 5 5 5 6 8 8 8 6 2 2 4 7 8 9 10 12 12 12 12 12 11 11 11 13 13
5 3 5 7 3 1 3 5 5 4 1 2 4 5 4 4 4 5 2 1 2 1 2 3 3 1 3 3 1 2 2 2 4 4 3 5 5 4 4 4 5 5 5 4 4 4 2 4 6 6 6 1 4 2 2 3 6 5 3 2 2 4 5 5 5 6 5 4 6 6 3 3 5 7 7 8 9 10 10 9 9 9 10 11 11 11 12 12
Wind_Direction
2 360 1 3 1 358 356 353 351 349 348 350 347 356 356 356 359 360 5 4 6 17 28 36 47 49 49 45 10 358 74 152 130 98 285 297 293 254 248 255 237 177 154 144 147 184 199 206 214 209 221 218 220 236 230 211 225 242 225 247 246 238 246 208 181 270 261 118 87 56 349 287 125 105 135 142 116 120 99 84 74 47 65 69 73 74 86 112
6 5 7 5 2 0 355 352 351 351 359 14 18 3 359 360 360 3 9 7 13 23 37 47 48 56 55 58 74 102 125 135 114 305 256 274 295 274 241 222 181 158 141 141 165 193 192 195 205 202 216 218 207 222 230 201 216 238 228 246 238 255 263 97 44 9 43 52 54 33 235 269 41 116 166 168 164 151 122 114 116 91 89 89 87 91 95 117
11 9 10 8 5 360 353 352 353 4 27 48 30 7 360 1 0 7 13 13 21 26 38 51 48 67 67 84 114 119 124 112 346 220 208 268 2 45 66 148 152 149 145 156 184 197 197 194 199 204 217 224 209 206 214 192 205 230 237 244 228 282 304 78 56 25 31 15 15 355 253 248 47 134 174 175 169 143 117 132 141 137 120 118 112 102 99 114
13 11 13 11 6 0 355 357 7 34 55 50 23 6 3 1 1 9 17 21 25 27 35 52 59 74 76 109 148 137 291 307 40 109 115 66 71 55 77 129 141 145 151 155 219 219 220 212 198 209 225 231 213 202 218 196 193 219 227 243 265 326 324 53 55 24 35 343 343 331 265 228 126 112 105 232 168 120 108 144 146 144 137 134 131 132 138 138
14 14 14 11 10 7 6 16 38 57 56 37 17 7 5 2 8 13 20 25 26 31 40 51 67 86 119 160 215 263 302 322 100 99 43 59 77 69 92 128 138 143 148 164 281 240 230 231 210 216 238 249 222 204 235 227 213 230 237 249 281 331 310 304 242 199 96 309 301 276 276 329 110 129 177 214 111 91 181 164 143 144 140 139 143 152 149 129
15 14 14 18 23 24 29 44 55 57 44 28 16 7 6 9 14 17 21 27 27 34 38 53 82 120 158 211 271 300 310 46 110 97 25 56 63 73 103 134 141 131 123 250 274 232 224 231 211 216 234 252 238 208 223 232 225 240 253 254 271 290 285 325 265 226 133 261 247 248 325 11 273 199 186 136 119 148 171 157 161 151 141 137 143 148 133 120
16 16 23 33 39 46 50 55 50 44 33 23 17 11 12 14 18 25 28 30 33 36 41 55 91 124 281 277 341 313 304 76 95 2 29 51 60 88 108 125 135 127 114 264 253 197 218 220 210 219 227 240 242 226 215 220 221 234 264 271 251 239 264 319 272 236 181 250 250 265 339 297 264 229 151 155 141 153 142 145 162 150 146 151 147 142 133 129
18 24 38 48 53 57 53 48 38 31 25 21 20 15 16 18 25 39 43 48 45 42 49 51 47 11 339 320 310 295 44 76 72 22 54 82 96 106 114 118 118 122 195 258 232 196 217 213 217 223 227 242 252 238 201 206 224 230 252 271 260 231 249 261 247 257 236 235 239 261 291 249 259 300 150 191 156 146 132 146 159 149 147 149 140 136 138 137
23 37 50 55 56 52 42 36 27 25 25 21 18 15 16 23 39 57 67 67 59 59 65 71 71 16 332 344 305 288 66 70 65 66 100 109 109 107 107 121 301 296 265 252 228 202 219 223 226 244 258 285 302 255 194 206 232 225 235 248 261 246 243 245 240 257 254 233 228 233 251 248 254 281 279 246 148 132 144 151 155 153 141 136 134 133 137 136
30 46 54 54 49 40 33 27 27 28 25 22 20 18 21 32 53 73 79 74 76 80 79 81 59 12 2 7 321 294 76 74 85 96 123 116 111 103 42 295 257 267 220 208 231 214 267 260 237 281 278 278 282 259 229 231 254 264 250 257 269 265 253 243 233 237 240 234 231 228 240 242 240 249 249 246 196 136 150 161 156 162 142 137 141 137 136 136
36 52 53 49 43 38 34 31 33 33 31 32 28 26 31 46 67 80 84 88 94 92 81 63 38 19 20 358 318 50 78 92 112 131 148 134 153 217 285 266 238 245 166 176 237 244 302 306 249 260 265 273 274 255 241 246 309 306 263 276 275 270 270 256 236 231 237 228 223 235 251 245 233 224 228 236 206 143 159 173 160 180 155 140 140 140 138 137
43 56 53 47 43 42 42 41 40 41 43 39 33 35 45 62 77 86 94 102 102 98 83 57 35 30 28 355 1 62 87 126 131 146 153 153 193 251 220 208 286 279 230 251 234 218 277 297 251 255 289 303 270 257 249 242 269 266 254 274 264 251 254 250 243 235 238 233 214 228 251 248 236 208 242 247 176 130 183 199 172 194 181 142 140 143 138 139
51 58 54 50 47 47 46 43 40 41 41 34 34 44 61 73 83 97 107 111 105 99 92 81 66 48 27 27 62 80 102 124 139 147 156 169 141 100 166 204 317 290 265 302 352 168 262 269 255 269 292 280 262 335 340 243 259 262 244 253 260 249 233 222 227 230 230 232 206 210 232 239 233 201 235 252 155 137 212 233 211 204 197 146 142 145 138 139
59 62 59 55 51 47 41 36 32 35 34 31 38 52 68 81 92 106 117 116 112 109 104 97 68 31 22 45 69 130 120 129 147 145 154 164 144 126 154 191 268 223 254 299 308 269 263 266 263 271 279 263 277 321 297 242 245 258 247 237 243 259 245 206 201 217 224 212 183 202 238 240 242 196 210 242 184 167 208 230 236 211 205 159 143 145 140 139
69 67 63 60 52 41 32 29 30 34 39 44 55 68 77 88 98 114 127 121 122 118 104 74 353 321 67 83 83 120 129 144 151 151 166 171 185 179 162 211 251 249 257 273 276 270 264 267 262 264 265 246 260 283 260 242 226 235 248 242 230 240 261 207 180 201 221 191 170 204 251 247 269 221 209 225 185 175 214 225 229 222 230 174 143 144 143 141
82 73 66 60 47 33 27 29 38 47 57 67 73 80 87 98 108 123 127 128 135 121 312 313 319 305 45 94 107 129 141 157 150 158 200 239 252 244 158 229 253 238 253 266 264 264 257 259 257 265 274 251 237 252 253 255 231 225 238 256 252 241 264 202 162 189 216 210 185 195 251 251 260 251 216 192 169 197 225 232 233 221 243 194 146 143 142 141
91 79 67 57 44 31 27 33 50 61 69 80 82 84 89 99 114 132 139 155 166 168 283 325 315 296 55 106 171 151 126 132 153 175 291 274 278 306 251 241 254 241 246 250 247 253 244 252 257 253 262 251 241 254 259 271 273 262 253 266 270 263 276 194 157 189 207 224 202 180 232 263 269 266 174 148 187 215 206 214 226 215 239 223 164 149 142 142
97 87 67 53 43 33 33 43 62 76 79 80 79 83 96 111 123 140 145 174 206 207 224 275 298 290 116 141 175 120 109 114 164 199 175 257 286 301 268 261 274 260 249 246 235 242 233 231 251 247 248 254 256 264 276 308 323 315 293 283 281 276 275 241 168 188 199 220 230 196 216 240 262 264 173 165 191 204 212 220 216 224 228 219 201 161 145 148
104 92 68 50 42 38 41 52 74 89 81 69 57 62 89 136 154 158 147 203 233 242 251 190 211 54 98 126 123 111 125 139 145 176 198 276 246 243 262 264 277 267 258 249 212 221 232 231 247 278 288 288 317 333 328 334 329 316 310 297 288 281 271 268 221 173 181 205 220 235 237 226 240 243 216 202 183 158 203 267 282 253 232 220 221 167 150 153
110 94 70 46 38 40 50 64 90 93 81 62 48 58 38 306 217 174 160 224 252 12 29 68 104 92 105 116 111 117 140 168 178 72 348 326 248 256 257 241 245 252 261 276 205 200 283 274 276 295 288 319 341 336 328 324 317 306 299 288 283 282 266 268 258 182 182 241 226 233 248 239 241 240 236 238 199 138 161 253 263 255 250 235 220 180 164 158
115 99 70 46 33 39 57 76 99 90 72 46 4 303 347 10 344 8 1 186 88 46 61 62 60 76 81 87 127 178 185 167 126 29 311 330 279 268 250 238 246 241 249 292 294 314 300 279 296 268 291 342 331 317 314 306 310 302 292 286 276 275 265 261 259 187 166 218 239 243 255 248 245 243 232 228 202 139 150 245 262 307 342 3 18 26 73 131
121 106 71 44 30 34 57 84 108 101 71 23 345 321 17 27 5 352 327 316 55 346 117 98 86 93 75 63 147 230 252 197 100 88 303 328 299 288 292 270 284 303 283 262 260 287 280 277 21 331 326 338 314 311 311 305 311 304 301 302 283 287 296 276 261 214 182 183 238 252 256 250 241 241 238 208 89 109 91 50 34 28 25 21 22 44 70 92
122 116 77 36 32 31 52 86 112 114 50 354 348 359 23 7 351 350 321 299 11 345 58 85 81 92 89 234 110 300 276 263 34 60 36 323 313 323 328 294 307 332 317 304 318 316 297 7 36 7 333 321 312 320 320 315 310 307 329 319 301 327 335 308 302 291 242 190 220 257 265 262 245 245 240 73 56 46 55 46 31 30 30 26 30 62 89 86
123 122 84 40 44 39 54 82 94 99 23 351 2 18 10 353 345 353 334 301 147 47 16 45 47 36 11 22 312 297 286 296 355 35 20 327 331 338 325 320 318 302 327 354 347 302 304 20 25 345 326 327 324 329 333 331 322 327 357 348 312 326 335 320 325 322 287 188 228 270 276 272 254 259 243 84 63 50 50 41 31 26 25 28 32 46 69 80
130 119 96 64 67 70 72 77 51 6 322 338 13 4 352 351 337 345 337 292 156 93 64 83 68 56 44 268 301 333 38 120 26 17 360 344 344 328 322 333 304 306 356 357 326 293 322 32 20 338 333 337 325 333 0 358 332 331 347 340 317 316 328 326 334 337 314 263 322 293 256 254 353 3 22 71 66 56 51 42 33 24 23 26 24 27 39 58
140 121 111 87 94 91 55 43 42 316 278 337 17 339 343 341 321 337 331 270 131 102 157 141 83 70 57 259 322 351 283 148 37 9 335 346 338 309 307 319 286 323 4 349 320 313 344 7 11 354 339 331 328 346 12 348 310 314 317 309 310 309 310 316 335 346 331 320 318 307 274 189 36 16 30 60 65 59 51 46 39 31 29 25 17 19 27 42
146 135 131 105 131 98 7 6 147 308 310 26 6 331 342 324 320 342 318 242 89 32 187 83 39 23 30 332 309 305 303 6 355 23 3 346 337 306 287 321 325 339 358 346 331 12 6 353 358 358 339 331 345 357 353 328 303 314 291 266 284 295 294 300 312 319 330 325 309 308 300 229 67 23 27 51 56 51 47 47 43 36 36 31 24 18 16 26
153 150 147 112 167 329 350 211 304 337 351 12 328 329 334 307 324 342 299 290 71 315 318 63 41 351 317 287 298 320 24 8 311 37 16 322 343 323 291 349 349 324 330 322 319 57 52 8 354 359 350 351 0 346 332 317 304 325 320 283 275 277 280 292 292 274 298 309 291 302 309 309 93 29 26 47 46 36 41 47 41 37 36 33 30 24 20 28
158 156 157 124 102 33 15 83 343 343 355 347 308 318 314 301 320 307 262 37 66 243 36 40 328 357 288 260 262 4 27 26 339 1 338 273 25 338 306 352 343 308 291 268 288 353 56 29 2 8 2 5 1 328 312 303 309 327 318 313 307 286 273 269 267 258 262 272 263 275 296 3 101 29 32 57 52 31 36 48 41 38 36 31 30 29 30 33
161 159 163 141 97 42 11 6 350 338 339 324 290 305 312 309 307 275 257 58 126 102 53 307 320 327 299 277 205 11 331 49 2 325 307 209 173 353 339 343 336 309 288 208 268 284 137 125 203 78 25 5 341 322 327 347 355 339 324 338 340 324 309 280 256 245 248 248 248 263 312 67 93 9 20 46 62 47 40 49 37 31 30 25 29 30 32 38
159 160 162 149 126 102 344 333 344 330 321 305 291 315 312 296 262 270 33 58 232 40 305 295 27 327 320 320 347 23 326 70 6 334 348 339 12 20 5 355 354 326 317 20 305 295 144 144 232 73 55 13 336 333 357 11 3 350 350 356 350 350 341 288 248 231 241 239 235 246 67 74 90 22 22 52 72 56 48 53 36 32 30 20 25 28 24 32
153 164 161 154 163 143 353 330 315 304 302 291 298 309 300 282 252 299 56 187 238 11 1 16 20 356 349 325 322 18 352 5 9 357 356 322 347 56 35 28 4 333 349 1 325 320 103 88 25 22 52 21 358 351 3 10 5 356 351 353 359 17 36 236 226 231 240 257 2 63 92 77 89 158 16 28 58 51 50 56 38 34 38 25 24 25 16 16
151 159 138 123 181 153 332 321 310 305 302 291 291 285 281 292 324 2 28 32 3 14 5 336 328 349 350 319 352 6 324 326 353 342 333 319 356 65 49 39 12 343 351 336 322 337 66 83 42 5 29 21 10 11 356 353 6 1 349 0 10 2 34 56 350 339 268 269 343 359 91 97 127 144 336 338 33 44 50 60 44 29 35 32 25 23 19 18
141 74 24 12 356 19 337 345 8 336 306 306 294 274 268 288 356 15 9 37 37 349 27 345 305 308 302 323 15 356 304 30 9 332 334 354 22 29 18 29 18 1 346 331 343 348 315 67 39 15 22 18 15 28 356 336 351 12 351 348 6 14 29 35 26 332 3 79 11 330 59 128 156 203 267 267 14 35 34 58 52 28 30 32 26 23 21 23
98 51 31 33 24 16 14 3 352 324 298 298 275 254 263 302 11 20 8 22 19 344 356 326 285 281 204 141 67 66 6 14 5 339 355 20 27 18 10 23 16 5 358 350 351 337 319 347 36 15 14 32 15 9 2 348 347 11 353 347 13 18 3 327 196 245 299 350 86 73 77 106 151 204 238 246 37 39 26 36 36 26 27 25 22 18 12 14
82 49 29 40 53 352 330 318 310 303 289 276 263 270 338 30 18 7 359 356 358 347 331 301 291 316 359 102 97 98 100 311 340 343 44 72 47 22 28 40 23 15 10 352 332 343 336 343 26 1 359 61 24 341 27 30 349 340 354 0 355 343 328 314 194 211 259 287 86 108 111 119 157 206 247 290 44 37 26 26 25 29 23 15 14 6 6 11
147 342 339 357 151 251 298 283 283 284 271 264 266 301 348 36 27 10 11 358 349 334 317 313 21 338 339 27 42 56 44 306 333 337 10 94 58 13 20 46 41 25 6 343 334 10 339 309 8 3 357 49 34 336 37 48 12 5 3 347 335 330 337 338 342 274 261 88 95 115 120 134 154 198 300 15 37 21 14 12 24 32 19 10 13 5 7 12
241 260 271 276 157 279 281 265 269 262 249 255 243 254 351 36 42 24 13 6 344 313 313 343 34 348 343 356 357 21 7 341 357 3 7 43 33 13 14 25 26 16 5 342 320 10 346 312 359 27 360 15 351 315 27 12 9 33 34 352 349 360 346 344 1 342 340 58 93 80 85 94 92 85 25 26 25 16 8 1 15 27 17 12 15 9 7 10
264 264 233 161 58 310 266 249 255 235 239 263 262 132 61 47 48 28 11 8 348 328 337 9 19 6 10 348 341 18 8 348 359 0 6 18 20 28 27 13 358 1 2 339 330 14 339 304 315 62 15 15 347 26 26 351 356 13 32 26 21 13 327 326 341 321 328 17 113 124 110 80 60 52 37 28 16 16 15 5 12 19 13 13 13 10 8 7
261 268 183 122 8 312 244 247 261 244 244 280 356 65 77 63 56 44 21 6 360 351 356 6 358 356 13 349 352 15 351 340 359 1 30 30 32 47 33 13 350 354 344 312 340 27 331 305 330 316 313 48 38 36 24 349 357 358 8 23 14 0 346 334 327 335 342 351 6 167 165 114 67 20 22 29 18 25 24 9 16 18 14 16 12 11 10 7
272 263 127 108 189 204 223 267 256 249 245 124 59 61 60 43 61 77 63 28 41 42 2 356 0 5 5 354 8 11 341 339 4 12 41 33 35 48 24 7 357 346 326 301 5 36 349 320 325 312 325 48 67 60 33 4 347 333 12 25 1 7 9 344 342 6 356 345 353 9 122 96 68 4 19 29 23 30 27 18 23 21 18 21 16 13 12 8
275 250 110 107 174 188 268 284 251 257 16 75 72 76 84 2 54 94 94 51 60 58 1 352 8 9 15 6 355 356 353 0 7 9 42 46 38 33 16 8 350 328 333 354 22 29 2 304 299 306 321 42 79 92 64 13 316 307 37 28 354 16 24 348 340 347 342 346 355 45 122 92 47 25 25 28 34 34 27 24 25 20 19 21 19 17 16 12
263 175 102 143 180 195 286 276 189 31 66 86 81 81 95 340 19 107 103 26 44 53 11 28 33 19 32 7 337 351 12 10 1 8 46 67 51 38 27 6 344 340 9 19 8 13 354 301 304 314 307 41 122 138 98 21 340 340 45 26 2 15 11 345 325 313 331 359 350 334 107 58 352 61 44 31 44 41 27 26 28 22 16 13 14 16 15 14
286 85 103 175 191 223 296 287 132 101 89 91 86 72 57 33 20 39 69 42 34 38 23 47 39 20 28 345 322 4 19 1 9 22 40 64 59 55 45 15 4 18 37 23 347 349 335 312 331 322 305 305 150 163 73 16 356 357 17 7 7 9 358 345 324 305 345 15 1 355 55 80 163 87 60 33 41 43 25 16 21 20 12 9 9 8 8 10
295 292 128 167 202 257 302 328 21 121 116 103 107 99 84 77 42 29 56 66 50 25 9 42 28 8 11 324 317 19 32 16 20 10 37 95 93 87 68 38 34 35 38 26 340 319 309 315 328 337 337 352 10 341 352 2 346 333 358 3 3 3 359 347 335 347 360 2 11 18 37 91 113 49 39 26 27 35 21 8 13 13 6 4 3 359 0 3
294 251 156 159 202 239 266 348 21 117 133 141 125 108 101 110 99 42 29 81 88 51 14 22 16 357 14 359 343 15 40 39 24 345 357 66 92 95 62 91 69 52 43 20 330 310 304 308 323 354 335 331 352 346 354 3 327 318 352 1 355 357 359 348 345 11 354 340 26 48 335 359 65 28 16 17 19 21 10 5 6 2 359 0 360 356 354 356
284 303 92 146 195 211 178 155 106 109 131 156 145 131 149 118 114 106 8 65 100 90 40 20 8 3 21 21 2 354 11 36 35 5 356 9 55 151 167 137 84 80 186 227 266 282 288 305 9 2 312 313 338 337 344 343 314 325 345 341 340 347 352 353 352 2 349 330 26 43 345 348 28 16 4 9 17 9 360 8 5 356 358 356 353 355 353 353
265 352 23 343 292 49 114 141 106 97 114 133 150 155 167 151 132 132 89 86 101 107 80 37 31 33 28 15 346 337 340 10 25 14 346 340 342 357 167 162 87 89 230 313 22 323 305 336 20 335 311 315 308 296 350 335 312 322 320 309 328 335 333 340 336 343 347 324 328 350 340 351 16 6 357 357 355 349 348 3 2 358 1 355 349 355 357 355
306 354 31 260 324 38 52 52 68 104 140 350 326 173 183 188 147 89 72 100 114 108 84 65 64 57 41 355 327 337 358 1 5 10 348 334 343 352 29 124 89 85 54 23 29 9 329 341 356 330 304 289 253 184 36 322 294 296 296 298 313 314 318 324 321 336 328 299 303 323 317 347 44 359 348 350 347 342 340 355 14 15 5 353 349 356 360 358
339 348 351 295 289 105 97 71 75 162 169 163 211 182 188 205 163 76 58 91 114 115 108 116 99 80 54 342 330 1 32 21 1 14 351 320 339 358 11 15 359 17 31 50 82 37 317 314 342 311 282 275 159 138 155 293 294 294 290 298 311 311 313 311 317 341 321 304 323 325 312 343 86 349 336 343 343 338 333 354 21 21 3 352 351 359 4 1
313 324 322 306 293 138 146 189 217 226 199 188 191 162 169 209 186 133 91 55 67 104 148 121 106 101 137 237 324 21 42 22 327 15 352 290 322 347 343 354 346 335 347 11 21 338 276 305 318 295 291 318 142 167 213 289 295 287 280 283 281 285 299 307 319 325 310 311 322 314 308 355 61 334 330 334 337 334 331 348 11 9 356 349 348 358 7 3
288 310 304 291 294 149 188 198 204 231 236 112 122 139 175 212 171 139 119 49 79 91 82 102 113 190 206 159 99 36 21 308 295 329 306 267 281 288 290 338 351 334 341 355 344 330 306 311 313 308 319 336 161 193 318 294 280 282 315 326 238 257 290 284 278 285 287 299 299 294 314 349 332 322 323 330 333 330 336 358 18 7 346 336 341 357 5 1